Preview of NWS' New Version of Forecast
This preview is not operational and should not be used for support decisions.

Regional Weather Roundup (RWR)

Issued by National Weather Service (NWS)

                            
000
ASUS43 KDTX 180310
RWRMI 
MICHIGAN HOURLY REGIONAL WEATHER ROUNDUP
NATIONAL WEATHER SERVICE DETROIT/PONTIAC MI
1100 PM EDT MON JUN 17 2019

NOTE: "FAIR" INDICATES FEW OR NO CLOUDS BELOW 12,000 FEET WITH NO
SIGNIFICANT WEATHER AND/OR OBSTRUCTION TO VISIBILITY.

MIZ047>049-052>055-059>063-066>070-074>076-081>083-180400-
SOUTHEAST LOWER MICHIGAN
  
CITY           SKY/WX    TMP DP  RH WIND       PRES   REMARKS
ADRIAN         CLOUDY    65  57  75 CALM      29.99F                  
ALMA           MOCLDY    58  56  91 CALM      30.01S                  
ANN ARBOR      CLOUDY    65  60  84 CALM      29.99S                  
BAD AXE        FAIR      54  50  87 E3        30.01S                  
CARO           FAIR      57  56  96 CALM      30.00S                  
DETROIT CITY   MOCLDY    64  55  72 E5        29.99S                  
DETROIT        CLOUDY    65  56  72 CALM      29.99S                  
FLINT          CLOUDY    67  57  70 NE3       29.99F                  
GROSSE ILE     FAIR      62  60  94 CALM      29.98F                  
HILLSDALE      CLOUDY    63  61  93 CALM      30.00S                  
HOWELL         CLOUDY    64  58  79 CALM      30.00S                  

CITY           SKY/WX    TMP DP  RH WIND       PRES   REMARKS
JACKSON        CLOUDY    67  63  87 CALM      29.99F                  
LAMBERTVILLE   FAIR      63  60  90 CALM      29.98S                  
LANSING        CLOUDY    66  60  81 CALM      30.00S                  
LAPEER         CLOUDY    64  57  77 CALM      30.00F                  
MASON          CLOUDY    65  62  88 N5        30.00S                  
MONROE         CLOUDY    64  63  97 CALM      29.98F                  
MT. CLEMENS    MOCLDY    62  55  80 NE5       29.99R                  
PONTIAC        FAIR      64  58  80 E3        29.98F                  
PORT HOPE        N/A     51  47  86 S5        30.00S                  
PORT HURON     CLOUDY    59  46  63 CALM      30.01S                  
TRI CITIES     FAIR      61  58  90 E5        30.01R                  
MIDLAND        FAIR      59  55  88 CALM      30.00S                  
TROY           CLOUDY    67  55  64 E3        30.01F                  
SAGINAW HB     FAIR      63  57  82 N3        30.00S                  
$$
MIZ043>046-050>051-056>058-064>065-071>073-077>080-180400-
SOUTHWEST LOWER MICHIGAN
  
CITY           SKY/WX    TMP DP  RH WIND       PRES   REMARKS
BATTLE CREEK   CLOUDY    66  62  87 NE5       30.00R                  
BENTON HARBOR  CLOUDY    60  55  83 CALM      29.99S                  
BIG RAPIDS     CLOUDY    64  59  84 CALM      30.00S                  
COLDWATER      CLOUDY    65  65 100 CALM      29.99S                  
FREMONT        CLOUDY    64  54  71 CALM      30.00S                  
HOLLAND        CLOUDY    62  57  83 CALM      30.00R                  
GRAND RAPIDS   CLOUDY    65  60  84 S5        30.00R                  
IONIA          CLOUDY    65  59  82 CALM      29.99S                  
KALAMAZOO      CLOUDY    67  61  81 CALM      29.99S                  
LUDINGTON      FAIR      55  51  87 CALM      30.01R                  
MARSHALL       CLOUDY    66  66 100 CALM      29.99S                  
MOUNT PLEASANT FAIR      60  57  91 CALM      30.00S                  
MUSKEGON       CLOUDY    64  55  72 N3        30.00S                  
SOUTH HAVEN    FAIR      59  56  89 CALM      29.99F                  
$$
MIZ016>042-180400-
NORTHERN LOWER MICHIGAN
  
CITY           SKY/WX    TMP DP  RH WIND       PRES   REMARKS
ALPENA         FAIR      53  49  86 CALM      30.01S                  
BEAVER ISLAND  FAIR      50  47  88 CALM      30.01R                  
BELLAIRE       FAIR      56  53  88 CALM      30.00R                  
CADILLAC       FAIR      61  52  73 CALM      30.00R                  
CHARLEVOIX     FAIR      55  50  82 CALM      30.03S                  
FRANKFORT      FAIR      58  49  72 CALM      30.00S                  
GAYLORD        FAIR      61  44  53 E6        30.01R                  
GRAYLING       FAIR      61  55  80 S6        29.99R                  
HARBOR SPRINGS FAIR      57  53  88 CALM      30.00R                  
HOUGHTON LAKE  MOCLDY    60  53  77 E6        30.02R                  
MANISTEE       FAIR      52  49  89 W3        30.00R                  
OSCODA         FAIR      51  48  88 CALM      30.01S                  
PELLSTON       FAIR      53  49  86 CALM      30.01R                  
ROGERS CITY    FAIR      59  48  67 S6        30.01S                  
TRAVERSE CITY  FAIR      57  51  80 CALM      29.98S                  
$$
MIZ007>008-015-180400-
EASTERN UPPER MICHIGAN
  
CITY           SKY/WX    TMP DP  RH WIND       PRES   REMARKS
KINROSS        FAIR      58  47  66 CALM      30.01R                  
MACKINAC ISLAN FAIR      55  47  77 SE6       30.00S                  
NEWBERRY       FAIR      58  51  78 CALM      30.00S                  
S. S. MARIE    FAIR      56  47  71 CALM      29.99S                  
MUNISING         N/A     55  49  80 CALM      29.97S                  
$$
MIZ004>006-011>014-085-180400-
CENTRAL UPPER MICHIGAN
  
CITY           SKY/WX    TMP DP  RH WIND       PRES   REMARKS
MANISTIQUE     FAIR      51  48  90 CALM      29.99R                  
ESCANABA       FAIR      55  52  89 NW3       29.99R                  
MENOMINEE      FAIR      56  53  90 CALM      29.99R                  
SAWYER-GWINN   FAIR      63  48  57 S8        29.98R                  
$$
MIZ001>003-009>011-084-180400-
WESTERN UPPER MICHIGAN
  
CITY           SKY/WX    TMP DP  RH WIND       PRES   REMARKS
IRON MOUNTAIN  FAIR      64  50  60 SE5       29.97R                  
HOUGHTON       LGT RAIN  54  43  66 NW13      29.98R                  
COPPER HARBOR    N/A     53  42  66 VRB3      29.99R                  
IRONWOOD       FAIR      54  51  90 CALM      29.98R                  
$$

ABBREVIATIONS USED IN REMARKS
   TC - TEMPERATURE IN CELSIUS
  WCI - WIND CHILL INDEX
   HX - HEAT INDEX
  VSB - VISIBILITY